This is the latest recevied weather packets stored in our database for station/object K8JMX-13. If no packets are shown the sender has not sent any weather packets the latest 10 day(s).
| Time | Temp. | Humidity | Pressure | Rain* | Wind** | Luminosity | Snow |
|---|---|---|---|---|---|---|---|
| 1777995248 | 20° C | 55% | 1007.6 hPa | 0 mm | - | 170 W/m² | - |
| 1777994944 | 20° C | 57% | 1007.5 hPa | 0 mm | - | 118 W/m² | - |
| 1777994641 | 20° C | 58% | 1007.4 hPa | 0 mm | - | 133 W/m² | - |
| 1777994335 | 20° C | 58% | 1007.4 hPa | 0 mm | - | 218 W/m² | - |
| 1777994032 | 19.44° C | 60% | 1007.2 hPa | 0 mm | - | 270 W/m² | - |
| 1777993729 | 18.89° C | 62% | 1007.2 hPa | 0 mm | - | 206 W/m² | - |
| 1777993427 | 18.89° C | 62% | 1007.4 hPa | 0 mm | - | 214 W/m² | - |
| 1777993121 | 18.89° C | 61% | 1007.2 hPa | 0 mm | - | 226 W/m² | - |
| 1777992820 | 18.89° C | 62% | 1007.3 hPa | 0 mm | - | 216 W/m² | - |
| 1777992517 | 18.89° C | 63% | 1007 hPa | 0 mm | - | 185 W/m² | - |
| 1777992216 | 18.33° C | 66% | 1007.1 hPa | 0 mm | - | 165 W/m² | - |
| 1777991911 | 18.33° C | 66% | 1007.1 hPa | 0 mm | - | 153 W/m² | - |
| 1777991609 | 17.78° C | 67% | 1007.1 hPa | 0 mm | - | 166 W/m² | - |
| 1777991306 | 17.78° C | 67% | 1007 hPa | 0 mm | - | 162 W/m² | - |
| 1777991004 | 17.78° C | 67% | 1007.1 hPa | 0 mm | - | 146 W/m² | - |
| 1777990700 | 17.78° C | 67% | 1006.9 hPa | 0 mm | - | 125 W/m² | - |
| 1777990398 | 17.78° C | 66% | 1006.9 hPa | 0 mm | - | 126 W/m² | - |
| 1777989790 | 17.78° C | 67% | 1006.8 hPa | 0 mm | - | 154 W/m² | - |
| 1777989489 | 17.78° C | 67% | 1006.9 hPa | 0 mm | - | 146 W/m² | - |
| 1777989184 | 17.78° C | 67% | 1007 hPa | 0 mm | - | 141 W/m² | - |
| 1777988880 | 17.78° C | 67% | 1006.9 hPa | 0 mm | - | 132 W/m² | - |
| 1777988577 | 17.78° C | 68% | 1007.1 hPa | 0 mm | - | 135 W/m² | - |
| 1777988273 | 17.22° C | 69% | 1006.8 hPa | 0 mm | - | 132 W/m² | - |
| 1777987970 | 17.22° C | 70% | 1007 hPa | 0 mm | - | 114 W/m² | - |
| 1777987667 | 16.67° C | 71% | 1006.9 hPa | 0 mm | - | 107 W/m² | - |
* Rain latest hour (hover to see other rain measurements)
** Current wind speed in m/s (hover to see current wind gust speed)